Location: Pescara
(42.4670°N, 14.2170°E)
Time: 02:28:01
(UTC+02:00)

ISS - Pass Details

Date: 16 May 2021
Orbit: 417 x 422 km, 51.6° (Epoch: 14 June)

Event Time Altitude Azimuth Distance (km) Brightness Sun altitude
Rises 04:29:59 0° 297° (WNW) 2,373 -0.2 -11.6°
Reaches altitude 10° 04:32:12 10° 288° (WNW) 1,506 -1.3 -11.3°
Maximum altitude 04:35:16 33° 223° (SW) 731 -3.1 -10.9°
Drops below altitude 10° 04:38:20 10° 157° (SSE) 1,499 -1.1 -10.5°
Sets 04:40:32 0° 147° (SSE) 2,359 0.0 -10.1°
